Voltar ao catálogo

COSMOS 1900 DEB

AtivoLEO
NORAD 43501·DEBRIS·🇷🇺 Russia

Lançado Dec 12, 1987 de Baikonur Cosmodrome

Loading…

Próximas Passagens (próximas 24 horas)

TLE

AtualizadoSource: Space-Track

Época: Sep 14, 2026, 04:45 UTC

1 43501U 87101F   26257.19821528  .00000197  00000-0  64634-4 0  9992
2 43501  66.0818 111.4410 0029050  21.1371 339.0930 14.58611688249254

Acompanhe COSMOS 1900 DEB em tempo real com AllMySat

Download on the App Store